Location: Anumalkud?ru
(16.4847°N, 80.6636°E)
Time: 23:44:31
(UTC+00:00)

Cosmos 1953 - Pass Details

Date: 11 April 2026
Orbit: 472 x 483 km, 82.5° (Epoch: 9 May)

Event Time Altitude Azimuth Distance (km) Brightness Sun altitude
Rises 13:09:45 0° 161° (SSE) 2,501 5.4 -5.0°
Reaches altitude 10° 13:12:06 10° 147° (SSE) 1,626 4.3 -5.6°
Maximum altitude 13:15:00 24° 92° (E) 1,021 3.1 -6.3°
Drops below altitude 10° 13:17:54 10° 37° (NE) 1,630 4.5 -6.9°
Sets 13:20:15 0° 23° (NNE) 2,509 5.6 -7.5°
